Location: Ferintosh
(52.7647°N, 112.9692°W)
Time: 14:00:53
(UTC+00:00)

Transit 2A Rocket - Pass Details

Date: 21 May 2024
Orbit: 583 x 910 km, 66.7° (Epoch: 14 June)

Event Time Altitude Azimuth Distance (km) Brightness Sun altitude
Rises 21:10:03 0° 314° (NW) 3,421 8.3 52.2°
Reaches altitude 10° 21:12:52 10° 302° (WNW) 2,522 7.9 51.9°
Maximum altitude 21:17:33 25° 249° (WSW) 1,715 8.0 51.4°
Drops below altitude 10° 21:22:22 10° 197° (SSW) 2,587 8.5 50.9°
Sets 21:25:18 0° 184° (S) 3,527 8.8 50.6°
